Theta_e
318 318 316 314 316 322 326 327 327 327 326 321 317 314 311 313 315 315 317 320 320 313 314 316 315 315 314 318 318 317 322 325 324 322 320 320 319 319 320 320 322 322 327 333 338
318 318 317 316 314 320 324 326 323 325 325 319 314 311 310 310 312 316 318 319 319 318 311 311 315 314 315 317 317 319 323 325 323 321 319 319 319 318 318 321 322 322 335 334 333
318 319 317 316 314 317 321 326 324 323 322 319 315 310 310 310 311 312 315 318 318 313 313 313 315 315 315 317 318 319 322 320 318 319 320 320 318 317 317 318 320 323 335 336 330
316 319 317 316 315 316 318 323 325 324 315 315 311 309 309 309 312 312 312 314 312 310 310 311 314 315 315 316 317 317 316 318 317 318 319 318 318 318 318 318 319 319 322 332 324
315 319 318 317 316 315 318 318 323 321 319 310 309 309 309 309 313 311 310 312 311 309 309 311 314 315 316 316 315 315 315 316 316 317 319 318 318 318 318 317 318 321 323 333 327
314 319 317 317 316 315 316 318 315 321 312 310 309 309 309 311 311 311 311 310 311 310 310 313 314 314 314 315 315 316 315 315 315 316 317 318 317 317 318 318 316 318 324 329 329
314 317 317 317 316 315 316 316 313 311 320 310 309 308 310 311 310 310 309 310 309 309 311 313 314 314 314 313 313 315 314 314 314 315 314 315 315 315 317 317 316 317 323 328 330
313 314 317 316 316 315 316 316 310 310 309 311 315 308 311 310 310 309 309 311 309 311 313 313 314 313 314 312 313 314 315 315 314 314 313 314 319 316 314 313 315 316 318 322 327
313 315 317 316 316 316 316 315 311 309 309 308 308 310 311 309 310 309 310 311 310 311 312 313 313 314 313 313 313 313 314 316 313 314 313 313 317 313 313 313 313 314 315 318 322
313 314 317 316 316 316 315 314 310 309 308 308 310 308 309 309 309 309 311 311 311 311 311 312 314 314 313 312 312 313 312 314 314 312 313 312 313 312 312 313 313 314 314 315 318
313 314 317 316 316 315 314 310 311 312 310 309 310 309 309 310 309 310 311 311 311 311 312 313 312 312 312 313 313 314 312 313 312 312 313 313 313 313 313 313 313 314 314 313 314
314 313 317 316 316 315 313 311 310 310 311 311 310 310 310 310 310 311 311 312 312 311 312 313 312 314 313 313 313 313 313 313 312 312 313 313 312 312 313 313 314 314 315 314 313
314 313 316 315 315 314 312 310 310 309 310 312 311 310 309 310 310 311 311 312 312 311 312 312 313 314 313 313 313 313 314 312 313 312 312 312 312 312 312 314 314 314 314 315 314
313 314 315 315 315 314 312 310 310 309 310 311 311 309 309 310 311 310 311 312 312 312 311 312 312 312 313 313 313 313 312 312 312 311 310 311 308 311 311 311 312 314 314 314 314
312 314 315 314 313 314 311 311 309 309 312 310 310 310 309 311 310 310 311 311 312 312 312 312 311 312 313 313 312 313 311 312 313 313 312 311 309 308 311 311 310 312 313 312 312
314 313 315 314 314 313 310 310 309 313 314 310 310 311 312 311 310 309 310 309 311 312 311 310 310 312 312 311 311 311 311 311 312 310 310 310 309 309 310 310 310 311 312 312 312
312 313 314 314 314 313 309 309 310 313 311 311 310 311 310 311 311 310 310 309 310 310 310 310 310 309 310 310 310 311 311 311 310 310 311 309 309 310 312 311 311 309 312 312 312
314 313 313 313 313 312 309 310 313 311 312 311 310 310 310 310 311 310 310 309 309 309 310 310 310 308 309 311 310 310 310 312 312 313 310 308 308 310 311 310 311 312 312 312 311
313 315 314 313 313 311 310 311 310 311 312 311 310 311 310 310 310 310 309 310 309 309 309 310 311 309 309 310 310 310 311 312 310 305 312 310 310 311 311 310 310 312 312 311 310
314 314 314 313 311 310 311 311 311 311 312 310 311 311 311 310 311 311 310 310 310 309 309 310 311 310 309 310 310 310 310 310 311 309 312 309 311 310 311 310 308 310 311 311 310
314 315 314 312 309 309 311 310 311 311 312 311 311 311 310 311 310 310 310 310 310 309 309 310 313 311 309 309 310 309 310 310 310 312 313 311 308 310 309 309 308 308 311 311 310
311 311 313 311 308 308 309 310 310 311 312 311 312 311 310 310 310 310 310 310 311 310 309 310 313 311 310 311 311 310 310 310 309 310 308 311 309 310 310 313 311 311 311 311 310
302 304 312 310 308 308 309 311 310 311 312 311 313 312 311 310 310 310 310 310 311 310 309 310 313 311 311 311 311 311 309 310 309 310 308 307 309 310 309 311 312 311 311 311 310
301 304 304 309 309 309 309 310 311 311 313 312 312 312 312 311 311 310 312 310 310 310 310 309 314 310 309 309 310 310 309 309 310 310 310 309 309 310 310 310 312 312 311 310 309
300 301 301 307 309 309 310 310 311 312 312 312 313 313 312 312 311 312 313 312 309 310 310 309 307 309 308 310 310 308 308 309 309 309 309 309 309 310 308 308 311 312 311 310 309
299 300 300 306 308 309 310 310 311 312 312 313 314 313 311 312 311 312 311 312 310 310 310 310 308 308 305 310 311 311 311 309 309 309 309 309 308 309 311 312 312 311 311 310 309
300 300 300 306 308 309 309 311 311 312 312 312 313 313 312 313 312 312 312 312 311 310 310 310 306 307 304 309 309 309 309 310 310 310 309 309 310 309 308 309 311 311 311 310 310
Wind_Speed
32 30 29 34 38 39 33 28 28 27 27 23 20 19 17 16 15 14 17 16 18 10 9 13 8 6 5 1 7 3 2 4 4 9 7 17 6 2 9 14 7 4 12 20 24
33 32 29 28 35 38 36 29 30 28 28 22 20 18 17 15 15 19 17 18 18 15 7 12 9 7 3 2 3 4 2 4 2 5 8 19 17 8 6 15 9 9 15 20 19
30 33 30 27 30 35 36 33 30 30 27 22 19 18 16 14 6 15 20 15 17 13 12 9 8 6 1 5 4 4 3 3 9 8 21 17 15 13 12 6 15 18 20 16 18
32 35 31 28 25 30 36 34 32 30 25 23 21 20 18 16 6 8 13 16 15 13 11 11 10 11 2 3 10 3 3 7 4 5 17 12 15 6 8 6 12 17 18 17 17
34 34 32 29 25 27 29 35 33 31 28 23 22 21 19 13 5 1 12 18 19 15 15 14 14 9 7 7 2 3 3 6 6 6 12 11 10 7 10 10 12 13 16 19 14
36 30 33 30 24 24 28 28 32 35 26 22 22 21 18 11 9 7 5 16 20 18 16 13 9 13 3 6 7 2 8 9 6 6 5 8 6 6 9 11 11 15 16 18 15
40 26 33 31 25 22 25 26 32 29 30 23 22 20 14 15 6 11 7 13 20 18 13 16 8 14 6 1 5 7 6 5 5 7 2 3 2 6 15 15 12 13 16 15 17
43 31 27 30 26 23 23 23 29 31 29 25 24 17 5 21 13 12 13 13 19 19 14 13 14 7 3 6 3 4 4 4 5 5 2 2 4 10 14 14 14 13 15 17 18
42 35 37 31 29 26 23 22 24 26 25 24 24 14 8 10 20 13 15 14 18 16 15 16 15 4 5 4 3 5 3 6 3 8 4 5 4 7 15 13 12 14 16 17 18
46 38 37 37 33 29 25 24 25 26 24 21 10 6 12 11 18 19 18 18 21 16 10 8 7 4 4 5 6 5 4 7 6 7 2 5 6 5 9 10 11 13 15 17 18
45 39 40 40 37 35 33 33 23 10 26 14 18 4 14 16 17 18 20 21 15 17 6 13 5 8 9 8 9 2 9 6 5 3 2 6 6 7 14 11 11 13 16 18 17
49 47 43 43 43 38 38 28 34 14 13 6 8 17 11 14 9 17 22 11 13 8 10 3 8 9 9 10 7 3 8 5 4 4 1 6 10 7 11 14 19 16 16 16 17
47 49 47 45 41 39 43 25 21 32 9 6 7 21 5 15 9 22 27 11 12 11 12 8 7 12 9 5 6 5 5 5 3 4 3 3 6 9 9 20 16 20 16 17 24
49 49 48 46 42 42 44 21 23 13 4 7 7 9 13 10 3 22 28 7 7 15 10 7 6 13 7 7 6 6 5 8 9 6 3 5 5 7 9 11 11 21 22 20 21
51 49 51 52 38 47 47 24 26 6 7 15 8 9 16 11 19 11 23 5 7 8 8 5 7 10 6 7 7 3 7 7 5 3 3 3 1 6 7 7 9 19 25 23 22
52 51 54 50 36 42 42 29 20 3 6 8 12 11 9 11 6 11 11 6 5 3 4 3 2 5 5 3 7 7 7 7 1 2 3 7 6 5 5 8 7 13 25 24 23
53 57 52 50 39 47 47 27 4 6 9 10 10 14 18 9 7 8 15 8 6 7 6 3 3 2 1 8 4 5 8 3 1 2 5 5 5 11 3 2 5 12 24 22 21
48 54 58 46 41 52 49 16 6 15 18 8 13 15 15 17 5 8 15 13 10 8 9 7 3 7 5 5 9 8 7 5 7 4 4 4 7 6 1 8 7 11 18 18 17
48 54 56 40 49 55 38 13 12 18 16 12 20 19 11 13 9 7 14 18 15 11 5 7 3 5 3 1 11 6 9 3 7 3 3 5 6 6 4 4 5 9 18 18 18
52 54 47 46 53 45 19 16 10 13 17 17 10 13 20 23 10 15 16 14 12 17 11 2 6 3 2 3 2 4 6 3 1 5 5 5 5 6 4 8 7 10 19 19 18
43 18 39 51 60 33 20 20 16 13 28 15 7 9 14 18 16 14 15 7 19 17 11 1 6 1 4 6 8 3 5 5 5 5 5 1 6 6 11 11 12 16 21 21 21
11 6 48 61 13 12 16 17 17 4 19 6 5 6 16 19 13 14 13 14 24 20 16 3 5 4 4 2 2 4 6 10 5 4 2 4 8 2 4 2 19 23 27 25 24
10 3 39 64 10 18 10 17 13 8 7 15 6 5 7 14 11 13 11 2 25 18 18 9 3 3 4 3 3 4 5 5 6 3 6 6 11 2 8 6 7 17 21 23 23
5 4 4 33 22 18 14 23 16 18 8 7 7 7 5 13 6 15 7 1 13 20 15 20 3 10 14 6 8 6 9 10 6 4 16 11 20 2 4 6 7 16 22 24 25
1 2 2 14 13 19 18 24 17 12 10 15 8 14 10 7 16 6 10 3 5 6 7 8 8 7 10 3 4 7 11 13 13 21 10 23 16 23 7 10 18 18 20 23 28
1 1 4 8 17 23 22 25 28 18 19 19 9 13 13 7 11 7 17 5 5 2 11 6 2 4 2 5 4 3 8 17 21 22 17 18 13 14 11 17 19 26 28 31 32
2 3 1 7 13 16 22 24 30 18 8 23 11 13 15 6 14 10 17 16 14 13 11 9 6 4 4 5 6 4 25 9 12 19 14 18 29 12 14 10 21 24 27 31 32
Wind_Direction
220 221 223 214 215 217 214 213 205 195 188 180 186 189 191 199 203 209 204 202 200 187 197 204 211 211 189 228 251 264 303 229 245 147 124 149 115 126 91 124 112 82 82 152 173
218 218 221 221 213 212 215 214 204 194 186 190 189 189 193 198 208 226 219 216 212 218 177 185 175 192 134 247 239 237 244 243 149 49 141 163 145 146 157 137 125 124 115 162 170
217 216 215 220 217 207 210 215 210 197 188 191 185 188 189 187 193 242 215 207 201 203 213 182 206 188 195 246 224 231 264 107 47 56 142 167 137 165 155 176 172 160 151 177 178
218 215 210 215 214 204 203 209 209 205 192 190 186 184 180 170 198 201 203 201 202 203 202 188 166 159 188 236 231 288 352 8 93 108 143 151 134 171 191 127 130 179 171 183 181
223 212 205 204 208 204 195 202 204 204 192 189 185 179 173 185 225 259 198 191 200 201 200 188 170 172 166 221 244 242 111 51 113 131 133 159 147 181 143 144 147 138 166 182 194
215 217 197 199 203 200 194 194 196 199 185 186 185 178 172 209 222 222 190 192 196 197 190 182 185 189 243 241 211 219 116 113 137 123 120 143 126 134 199 188 157 161 177 188 201
209 221 190 195 190 195 193 193 194 186 198 189 179 179 192 203 213 214 202 192 193 193 189 189 179 187 220 81 187 145 116 132 136 162 157 144 134 220 160 169 178 179 181 191 196
205 209 196 190 184 187 189 193 187 184 183 188 194 176 228 221 221 208 188 183 187 176 184 185 198 202 183 141 110 178 159 157 164 147 248 169 236 202 175 165 187 199 193 193 200
205 201 193 188 179 181 182 188 175 174 172 168 168 182 220 211 213 213 187 179 172 177 178 184 177 170 157 176 136 236 197 199 176 197 142 202 238 122 169 183 201 198 201 203 198
199 198 187 180 178 174 174 172 158 154 151 149 153 169 235 212 192 199 176 175 162 165 160 159 153 164 216 200 198 152 235 196 154 198 193 197 256 173 188 189 208 216 207 203 202
195 190 187 179 177 173 165 147 134 135 164 167 181 138 158 165 186 183 181 160 159 150 159 198 171 195 193 213 252 167 196 217 96 36 188 226 246 229 184 197 216 225 211 208 205
201 193 187 180 178 175 174 166 170 204 158 196 135 180 170 154 148 176 165 163 150 162 156 157 213 189 205 211 239 285 199 165 63 78 58 223 248 241 251 206 206 213 215 209 197
198 185 188 180 175 174 180 165 181 151 135 169 161 179 196 176 173 181 173 181 169 173 182 165 175 219 209 180 162 234 222 149 145 132 268 345 279 240 232 237 216 220 226 208 203
189 182 184 173 174 176 180 174 168 155 107 157 189 191 184 171 160 183 177 185 190 187 176 212 180 198 151 170 174 204 82 100 123 148 220 168 275 234 200 203 203 209 214 212 188
190 186 186 185 177 179 176 175 170 184 151 151 161 150 176 182 140 185 186 200 186 165 143 182 148 144 162 172 180 217 133 128 138 234 37 224 315 263 168 201 212 213 215 215 220
199 189 184 179 180 177 166 174 172 139 182 182 145 163 149 199 164 138 161 174 166 102 61 87 313 139 164 93 165 134 91 81 113 184 281 210 196 256 184 201 210 205 205 203 206
192 187 187 176 170 167 165 149 101 200 165 163 175 165 179 163 135 181 177 176 158 137 171 115 101 57 87 93 99 128 137 102 203 218 218 331 227 233 273 285 195 179 181 193 210
186 186 189 177 176 166 159 163 191 184 181 145 157 153 179 152 154 192 167 187 224 208 148 165 182 158 191 175 165 186 174 154 179 195 215 345 238 245 92 76 146 178 194 200 204
188 190 178 175 173 168 157 182 197 170 176 152 140 159 176 168 138 178 193 193 193 206 186 160 97 41 114 85 145 199 215 103 101 19 59 215 271 290 168 191 188 170 176 190 196
185 179 181 169 170 166 170 195 189 157 150 144 155 183 181 174 146 180 184 196 199 207 218 27 100 29 351 351 336 173 147 116 312 137 234 252 246 230 245 243 207 198 190 197 200
183 172 175 169 167 177 194 187 180 175 159 166 163 173 181 175 178 188 185 164 192 189 196 280 102 75 136 223 169 158 191 210 161 186 182 216 255 208 210 205 194 200 206 207 201
170 154 165 165 158 193 195 186 197 154 164 191 140 144 177 169 185 188 200 184 184 166 190 152 97 147 192 339 37 252 205 196 158 245 185 145 259 128 92 79 189 194 200 203 208
114 119 166 165 168 187 158 198 207 161 182 185 154 132 158 168 189 191 187 147 175 168 172 171 172 84 10 320 158 212 208 227 243 71 199 147 259 9 54 48 177 178 186 193 200
129 146 180 177 188 169 167 190 199 173 167 184 169 122 143 172 185 194 147 144 170 168 164 157 136 194 200 196 137 191 199 200 183 166 231 218 255 142 177 174 169 177 186 193 201
140 152 191 175 187 176 174 184 188 173 174 170 191 183 162 161 189 175 160 103 46 142 132 150 201 194 236 123 133 187 186 204 203 228 195 240 238 254 178 196 204 189 188 199 207
51 92 92 170 164 178 178 185 188 191 175 189 164 182 194 159 180 164 177 141 164 83 173 177 221 168 324 190 144 172 212 210 215 229 230 247 255 260 228 210 187 199 206 211 215
54 70 95 170 168 176 190 181 189 174 185 184 171 172 195 174 170 187 179 153 148 155 176 168 137 127 242 134 94 317 227 193 217 224 210 230 243 245 254 188 198 210 215 222 225